Regional Weather Roundup
Issued by NWS Green Bay, WI

Home | Current Version | Previous Version | Graphics & Text | Print | Product List | Glossary Off
Versions: 1 2 3 4 5 6 7 8 9 10 11 12 13 14 15 16 17 18 19 20 21 22 23 24 25 26 27 28 29 30 31 32 33 34 35 36 37 38 39 40 41 42 43 44 45 46 47 48 49 50

000
ASUS43 KGRB 250711
RWRGRB

NORTH-CENTRAL AND NORTHEAST WISCONSIN REGIONAL WEATHER ROUNDUP
NATIONAL WEATHER SERVICE GREEN BAY WI
100 AM CST SUN FEB 25 2018

WIZ005-009-010>012-018-019-250800-
NORTH CENTRAL WISCONSIN

CITY           SKY/WX    TMP DP  RH WIND       PRES   REMARKS
IRONWOOD       LGT SNOW  28  27  96 E5        29.35F VSB 3/4
MANITOWISH WTR LGT SNOW  27  27 100 SE6       29.32F VSB 1
ARBOR VITAE    LGT SNOW  32  30  94 S7        29.33F
EAGLE RIVER    LGT SNOW  28  28 100 SE5       29.34F VSB 3/4
LAND O LAKES   SNOW      28  27  96 SE6       29.35F VSB 1/4
RHINELANDER    LGT SNOW  29  29 100 SE8       29.33F VSB 1
PHILLIPS       LGT SNOW  28  28 100 SE3       29.32F
ANTIGO         LGT SNOW  30  30 100 SE13      29.35F VSB 1
TOMAHAWK       LGT SNOW  29  28  95 CALM      29.34F
MERRILL        LGT SNOW  31  31 100 CALM      29.36F
$$

WIZ013-073-250800-
NORTHEAST WISCONSIN

CITY           SKY/WX    TMP DP  RH WIND       PRES   REMARKS
IRON MOUNTAIN  LGT SNOW  30  27  88 SE7       29.40F VSB 3/4
MARINETTE      LGT SNOW  32  30  93 SE6       29.43F VSB 1
OCONTO         CLOUDY    32  32  99 CALM      29.42F
$$

WIZ017-030-035>037-045-250800-
CENTRAL WISCONSIN

CITY           SKY/WX    TMP DP  RH WIND       PRES   REMARKS
MEDFORD        MIX PCPN  30  29  96 S9        29.34F
WAUSAU         LGT SNOW  32  32 100 SE7       29.34F FOG
MOSINEE        LGT SNOW  32  32 100 S7        29.37F
MARSHFIELD     LGT SNOW  32  31  96 SW10      29.36F FOG
WISC RAPIDS    LGT SNOW  33  30  88 MISG      29.41F FOG
STEVENS POINT  MIX PCPN  31  31 100 S3        29.38F
WAUPACA        LGT RAIN  35  33  92 S5        29.40F
SHAWANO        MIX PCPN  34  32  92 CALM      29.40F
CLINTONVILLE   LGT SNOW  33  32  97 CALM      29.39F
WAUTOMA        LGT RAIN  34  33  96 SW10      29.42S
$$

WIZ038-039-048-051-250800-
FOX VALLEY

CITY           SKY/WX    TMP DP  RH WIND       PRES   REMARKS
NWS GREEN BAY  LGT RAIN  35  32  88 S8        29.40F
APPLETON       LGT RAIN  34  34 100 S8        29.37F
OSHKOSH        LGT RAIN  36  35  96 SW7       29.39F
FOND DU LAC    LGT RAIN  37  34  89 S7        29.37F
$$

WIZ022-050-052-250800-
EAST CENTRAL WISCONSIN

CITY           SKY/WX    TMP DP  RH WIND       PRES   REMARKS
EPHRAIM        LGT SNOW  32  31  98 W3        29.41R
WASHINGTON ISL LGT SNOW  32  31  96 SE9       29.37F
STURGEON BAY   LGT SNOW  34  33  96 S10       29.42R FOG
MANITOWOC      LGT RAIN  36  35  96 S12       29.42F FOG
SHEBOYGAN      LGT SNOW  36  36 100 S9        29.40F FOG
$$

LMZ563-521-522-541>543-250800-
LAKESHORE

STATION/POSITION TIME  TEMP    WIND        PRES    VSBY  WAVE
                       AIR SEA DIR/SP/G                  HT/PER
                 (UTC) (F)     (DEG/KT/KT) (MB)    (MI)  (FT/S)
SHEBOYGAN LKSHOR 0700   37     180/ 18/ 19  995.9F
KEWAUNEE LKSHORE 0642          200/ 14/ 20  995.1F
SISTER BAY LKSHO 0620   32     130/ 10/ 18   N/A
MENOMINEE LKSHOR 0642          120/ 10/ 11  996.4F
$$




USA.gov is the U.S. government's official web portal to all federal, state and local government web resources and services.